Regional Weather Roundup
Issued by NWS

Home | Current Version | Previous Version | Text Only | Print | Product List | Glossary Off
Versions: 1 2 3 4 5 6 7 8 9 10 11 12 13 14 15 16 17 18 19 20 21 22 23 24 25 26 27 28 29 30 31 32 33 34 35 36 37 38 39 40 41 42 43 44 45 46 47 48 49 50

871
ASUS43 KOAX 250310
RWRNE

WEATHER ROUNDUP FOR NEBRASKA
NATIONAL WEATHER SERVICE OMAHA NE
1000 PM CDT MON JUL 24 2017

NOTES: SATELLITE DATA IS BEING USED TO AUGMENT CLOUD COVER ABOVE
       12000 FEET.
       "FAIR" INDICATES FEW OR NO CLOUDS BELOW 12,000 FEET WITH NO
       SIGNIFICANT WEATHER AND/OR OBSTRUCTIONS TO VISIBILITY.


NEZ001>004-019>022-054>056-250400-
NEBRASKA PANHANDLE

CITY           SKY/WX    TMP DP  RH WIND       PRES   REMARKS
SCOTTSBLUFF    CLOUDY    78  57  48 E7        29.91R
ALLIANCE       CLEAR     80  51  36 S15       29.90R
CHADRON        CLEAR     87  45  23 E8        29.83R
GORDON         FAIR      81  54  40 W3        29.88R
KIMBALL        CLEAR     77  49  37 SE8       30.01R
SIDNEY         PTCLDY    77  55  46 S15       29.99S
$$

NEZ057>060-069>072-079>082-250400-
SOUTHWEST NEBRASKA

CITY           SKY/WX    TMP DP  RH WIND       PRES   REMARKS
NORTH PLATTE   PTCLDY    88  53  30 S12       29.90R
IMPERIAL       CLOUDY    86  53  32 NE16G23   29.99R
LEXINGTON      PTCLDY    78  67  68 SE8       29.93R
MCCOOK         CLOUDY    87  55  33 S12       29.94R
OGALLALA       CLOUDY    82  54  38 S16G25    29.91R
$$

NEZ005>010-023>029-035>040-094-250400-
NORTH CENTRAL NEBRASKA

CITY           SKY/WX    TMP DP  RH WIND       PRES   REMARKS
VALENTINE      CLOUDY    86  53  32 NE10      29.85R
AINSWORTH      CLOUDY    81  66  59 E16G25    29.91R THUNDER
BROKEN BOW     PTCLDY    80  68  66 SE12      29.93R
O`NEILL        CLOUDY    82  71  68 E12       29.93R
ORD            CLEAR     82  69  64 SE13      29.90R
THEDFORD       PTCLDY    88  53  30 SE13      29.90R
$$

NEZ041-046>049-061>064-073>077-083>087-250400-
SOUTH CENTRAL NEBRASKA

CITY           SKY/WX    TMP DP  RH WIND       PRES   REMARKS
GRAND ISLAND   CLEAR     81  70  69 SE12      29.95R
AURORA         CLEAR     76  70  81 SE8       29.96R
HASTINGS       CLEAR     81  71  71 SE12      29.96R
HEBRON         CLEAR     82  72  72 SE8       29.96R
HOLDREGE       CLEAR     75  63  66 SE8       29.94R
KEARNEY        CLEAR     79  71  76 SE12      29.95R
YORK           CLEAR     79  72  78 SE12      29.96R
$$

NEZ011>018-030>034-042>045-250400-
NORTHEAST NEBRASKA

CITY           SKY/WX    TMP DP  RH WIND       PRES   REMARKS
NORFOLK        PTCLDY    77  67  71 SE14      29.94R
ALBION         CLOUDY    79  71  77 SE7       29.95R
BLAIR          CLEAR     77  67  71 SE8       29.98R
COLUMBUS       CLEAR     78  68  71 SE10G17   29.96R
FREMONT        CLEAR     78  66  67 SE10      29.98R
TEKAMAH        PTCLDY    74  66  76 SE7       29.97R
WAYNE          MOCLDY    76  70  80 SE10      29.95R
$$

NEZ050>053-065>068-078-088>093-250400-
SOUTHEAST NEBRASKA

CITY           SKY/WX    TMP DP  RH WIND       PRES   REMARKS
LINCOLN        CLEAR     80  67  64 SE12      29.97R
OMAHA EPPLEY   PTCLDY    79  67  66 SE13      29.98R
BEATRICE       CLEAR     81  69  67 SE7       29.97R
FALLS CITY     CLEAR     74  68  81 SE5       29.98R
NEBRASKA CITY  CLEAR     75  69  81 SE8       29.99R
PLATTSMOUTH    CLEAR     75  66  73 SE8       29.99R
$$

NEZ044-045-051>053-067-250400-
OMAHA AREA

CITY           SKY/WX    TMP DP  RH WIND       PRES   REMARKS
OMAHA EPPLEY   PTCLDY    79  67  66 SE13      29.98R
BLAIR          CLEAR     77  67  71 SE8       29.98R
FREMONT        CLEAR     78  66  67 SE10      29.98R
MILLARD        CLEAR     78  69  73 SE7       29.98R
OFFUTT AFB     CLEAR     74  66  75 E7        29.98R
PLATTSMOUTH    CLEAR     75  66  73 SE8       29.99R
WAHOO          FAIR      72  67  84 SE6       29.98R
$$




USA.gov is the U.S. government's official web portal to all federal, state and local government web resources and services.